Idaho Falls, ID

6:21 AM MDT on July 17, 2019 (GMT -0600)
Fanning

Weather History for KIDA - June, 2019

Change the Weather History Date:

Friday, June 14, 2019

  Actual Average Record
Temperature  
Mean Temperature 64 °F 60 °F  
Max Temperature 79 °F 76 °F 92 °F (1987)
Min Temperature 49 °F 45 °F 33 °F (1981)
Degree Days  
Heating Degree Days 1 5  
Month to date heating degree days 98 95  
Since 1 June heating degree days 98 95  
Since 1 July heating degree days 7876 7786  
Cooling Degree Days 0 1  
Month to date cooling degree days 0 5  
Year to date cooling degree days 0 7  
Since 1 June cooling degree days 0 5  
Growing Degree Days 13 (Base 50)    
Moisture  
Dew Point 48 °F    
Average Humidity 62    
Maximum Humidity 93    
Minimum Humidity 31    
Precipitation  
Precipitation T in 0.04 in 0.44 in (1963)
Month to date precipitation 0.33 0.68  
Year to date precipitation 7.29 5.53  
Sea Level Pressure  
Sea Level Pressure 29.86 in    
Wind  
Wind Speed 9 mph (SW)    
Max Wind Speed 18 mph    
Max Gust Speed 23 mph    
Visibility 10 miles    
Events Rain    
T = Trace of Precipitation, MM = Missing Value Source: NWS Daily Summary

Daily Weather History Graph

Daily Weather History Graph

Search for Another Location

Airport or City:

Astronomy

Jun. 14, 2019 Rise Set
Actual Time 5:46 AM MDT 9:10 PM MDT
Civil Twilight 5:10 AM MDT 9:46 PM MDT
Nautical Twilight 4:24 AM MDT 10:33 PM MDT
Astronomical Twilight 3:25 AM MDT 11:31 PM MDT
Moon 6:31 PM MDT (6/14) 4:12 AM MDT (6/14)
Length of Visible Light 16h 35m
Length of Day
15h 23m
Waxing Gibbous, 92% of the Moon is Illuminated
Jun 14
Waxing Gibbous
Jun 17
Full
Jun 25
Last Quarter
Jul 2
New
Jul 9
First Quarter

Hourly Weather History & Observations

Time (MDT) Temp. Dew Point Humidity Pressure Visibility Wind Dir Wind Speed Gust Speed Precip Events Conditions
12:53 AM 60.1 °F 48.0 °F 64% 29.88 in 10.0 mi South 21.9 mph 33.4 mph 0.02 in Rain Light Rain
1:53 AM 63.0 °F 46.0 °F 54% 29.81 in 10.0 mi North 3.5 mph - 0.01 in   Mostly Cloudy
2:53 AM 55.0 °F 48.0 °F 77% 29.85 in 10.0 mi North 5.8 mph - N/A   Clear
3:53 AM 53.1 °F 48.9 °F 86% 29.86 in 10.0 mi North 5.8 mph - N/A   Clear
4:53 AM 51.1 °F 48.0 °F 89% 29.87 in 10.0 mi SW 6.9 mph - N/A   Mostly Cloudy
5:53 AM 51.1 °F 48.0 °F 89% 29.88 in 10.0 mi SW 5.8 mph - N/A   Mostly Cloudy
6:53 AM 48.9 °F 46.9 °F 93% 29.89 in 10.0 mi Calm Calm - N/A   Partly Cloudy
7:53 AM 55.0 °F 50.0 °F 83% 29.90 in 10.0 mi Calm Calm - N/A   Partly Cloudy
8:53 AM 61.0 °F 51.1 °F 70% 29.91 in 10.0 mi SW 8.1 mph - N/A   Clear
9:53 AM 64.9 °F 52.0 °F 63% 29.91 in 10.0 mi SW 11.5 mph - N/A   Partly Cloudy
10:53 AM 66.9 °F 51.1 °F 57% 29.89 in 10.0 mi SSW 11.5 mph - N/A   Clear
11:53 AM 70.0 °F 53.1 °F 55% 29.88 in 10.0 mi WSW 11.5 mph - N/A   Clear
12:53 PM 72.0 °F 51.1 °F 48% 29.87 in 10.0 mi WSW 9.2 mph - N/A   Clear
1:53 PM 75.9 °F 46.9 °F 36% 29.83 in 10.0 mi SSW 8.1 mph 17.3 mph N/A   Scattered Clouds
2:53 PM 75.0 °F 46.9 °F 37% 29.84 in 10.0 mi South 10.4 mph 19.6 mph N/A   Clear
3:53 PM 75.9 °F 45.0 °F 33% 29.82 in 10.0 mi SSW 12.7 mph - N/A   Clear
4:53 PM 73.9 °F 45.0 °F 35% 29.83 in 10.0 mi SSW 12.7 mph - N/A   Scattered Clouds
5:53 PM 78.1 °F 46.9 °F 33% 29.81 in 10.0 mi SSW 15.0 mph - N/A   Scattered Clouds
6:53 PM 75.9 °F 43.0 °F 31% 29.80 in 10.0 mi SSW 10.4 mph - N/A   Clear
7:53 PM 73.9 °F 46.0 °F 37% 29.80 in 10.0 mi South 11.5 mph - N/A   Clear